sat.trackr.live / text

‹ back to catalog

BLACKJACK ACES-3

NORAD 56950 · 2023-084U

PAYLOAD ACTIVE UNKNOWN

§ Identity

Operator
Country
US
Launch date
2023-06-12
Launch site
AFWTR
Launch vehicle
Mass (kg)
RCS (m²)

External: N2YO · Heavens-Above · Gunter

§ Orbital elements

Epoch: 2026-05-24T21:46:23.102112Z

Period
94.84 min
Inclination
97.6178°
Eccentricity
0.0004061
Mean motion
15.18315240 rev/d
Perigee alt
508.1 km
Apogee alt
513.7 km
Semi-major
6,889.1 km
B*
2.3315e-4
RAAN
279.9290°
Arg perigee
91.3587°
Mean anomaly
268.8112°
Rev number
16,363

§ Raw data

BLACKJACK ACES-31 56950U 23084U   26144.90721183  .00004714  00000+0  23315-3 0  99922 56950  97.6178 279.9290 0004061  91.3587 268.8112 15.18315240163634

JSON: /api/v1/satellites/56950 · /tle

For live sub-satellite position, see the globe view (requires WebGL).

§ Visibility from observer

Set your observer location to see the next 7 days of passes ≥ 10°. The values pass through the URL so the page stays shareable.

No JS? Fill the form by hand. The geolocation button needs JavaScript.

§ Radio — SatNOGS DB

ModeDescriptionDownlinkUplink
BPSK S-band telemetry 2.265 GHz

1 transmitter · refreshed weekly from db.satnogs.org